Time,TemperatureF,DewpointF,PressureIn,WindDirection,WindDirectionDegrees,WindSpeedMPH,WindSpeedGustMPH,Humidity,HourlyPrecipIn,Conditions,Clouds,dailyrainin,SoftwareType,DateUTC
2013-01-17 00:02:00,32.0,31.0,30.51,ENE,76,2.0,3.0,97,0.00,,,0.00,,2013-01-17 08:02:00,
2013-01-17 00:12:00,32.0,31.0,30.51,ENE,76,2.0,3.0,97,0.00,,,0.00,,2013-01-17 08:12:00,
2013-01-17 00:22:00,32.0,31.0,30.51,ESE,107,1.0,2.0,96,0.00,,,0.00,,2013-01-17 08:22:00,
2013-01-17 00:32:00,32.0,31.0,30.51,ESE,107,1.0,2.0,96,0.00,,,0.00,,2013-01-17 08:32:00,
2013-01-17 00:43:00,32.0,31.0,30.51,ESE,107,1.0,2.0,96,0.00,,,0.00,,2013-01-17 08:43:00,
2013-01-17 00:52:00,32.0,31.0,30.51,East,82,0.0,0.0,96,0.00,,,0.00,,2013-01-17 08:52:00,
2013-01-17 01:02:00,32.0,31.0,30.51,East,82,0.0,0.0,96,0.00,,,0.00,,2013-01-17 09:02:00,
2013-01-17 01:12:00,32.0,31.0,30.51,East,82,0.0,0.0,96,0.00,,,0.00,,2013-01-17 09:12:00,
2013-01-17 01:22:00,32.0,31.0,30.51,East,82,0.0,1.0,96,0.00,,,0.00,,2013-01-17 09:22:00,
2013-01-17 01:32:00,32.0,31.0,30.51,East,82,0.0,1.0,96,0.00,,,0.00,,2013-01-17 09:32:00,
2013-01-17 01:42:00,32.0,31.0,30.51,East,82,0.0,1.0,96,0.00,,,0.00,,2013-01-17 09:42:00,
2013-01-17 01:52:00,32.0,31.0,30.51,ESE,114,0.0,1.0,96,0.00,,,0.00,,2013-01-17 09:52:00,
2013-01-17 02:02:00,32.0,31.0,30.51,ESE,114,0.0,1.0,96,0.00,,,0.00,,2013-01-17 10:02:00,
2013-01-17 02:11:00,32.0,31.0,30.51,ESE,114,0.0,1.0,96,0.00,,,0.00,,2013-01-17 10:11:00,
2013-01-17 02:22:00,31.0,30.0,30.51,North,359,0.0,1.0,96,0.00,,,0.00,,2013-01-17 10:22:00,
2013-01-17 02:32:00,31.0,30.0,30.51,North,359,0.0,1.0,96,0.00,,,0.00,,2013-01-17 10:32:00,
2013-01-17 02:42:00,31.0,30.0,30.51,North,359,0.0,1.0,96,0.00,,,0.00,,2013-01-17 10:42:00,
2013-01-17 02:52:00,31.0,30.0,30.51,South,186,0.0,1.0,97,0.00,,,0.00,,2013-01-17 10:52:00,
2013-01-17 03:02:00,31.0,30.0,30.51,South,186,0.0,1.0,97,0.00,,,0.00,,2013-01-17 11:02:00,
2013-01-17 03:12:00,31.0,30.0,30.51,South,186,0.0,1.0,97,0.00,,,0.00,,2013-01-17 11:12:00,
2013-01-17 03:22:00,31.0,30.0,30.50,East,92,1.0,1.0,97,0.00,,,0.00,,2013-01-17 11:22:00,
2013-01-17 03:32:00,31.0,30.0,30.50,East,92,1.0,1.0,97,0.00,,,0.00,,2013-01-17 11:32:00,
2013-01-17 03:42:00,31.0,30.0,30.50,East,92,1.0,1.0,97,0.00,,,0.00,,2013-01-17 11:42:00,
2013-01-17 03:52:00,31.0,30.0,30.49,ENE,71,0.0,1.0,96,0.00,,,0.00,,2013-01-17 11:52:00,
2013-01-17 04:02:00,31.0,30.0,30.49,ENE,71,0.0,1.0,96,0.00,,,0.00,,2013-01-17 12:02:00,
2013-01-17 04:12:00,31.0,30.0,30.49,ENE,71,0.0,1.0,96,0.00,,,0.00,,2013-01-17 12:12:00,
2013-01-17 04:22:00,31.0,30.0,30.47,ENE,70,1.0,2.0,97,0.00,,,0.00,,2013-01-17 12:22:00,
2013-01-17 04:32:00,31.0,30.0,30.47,ENE,70,1.0,2.0,97,0.00,,,0.00,,2013-01-17 12:32:00,
2013-01-17 04:42:00,31.0,30.0,30.47,ENE,70,1.0,2.0,97,0.00,,,0.00,,2013-01-17 12:42:00,
2013-01-17 04:52:00,30.0,29.0,30.47,ENE,69,1.0,2.0,97,0.00,,,0.00,,2013-01-17 12:52:00,
2013-01-17 05:03:00,30.0,29.0,30.47,ENE,69,1.0,2.0,97,0.00,,,0.00,,2013-01-17 13:03:00,
2013-01-17 05:12:00,30.0,29.0,30.47,ENE,69,1.0,2.0,97,0.00,,,0.00,,2013-01-17 13:12:00,
2013-01-17 05:22:00,30.0,29.0,30.47,WNW,302,0.0,2.0,97,0.00,,,0.00,,2013-01-17 13:22:00,
2013-01-17 05:33:00,30.0,29.0,30.47,WNW,302,0.0,2.0,97,0.00,,,0.00,,2013-01-17 13:33:00,
2013-01-17 05:42:00,30.0,29.0,30.47,WNW,302,0.0,2.0,97,0.00,,,0.00,,2013-01-17 13:42:00,
2013-01-17 05:52:00,30.0,29.0,30.46,ENE,58,0.0,1.0,97,0.00,,,0.00,,2013-01-17 13:52:00,
2013-01-17 06:03:00,30.0,29.0,30.46,ENE,58,0.0,1.0,97,0.00,,,0.00,,2013-01-17 14:03:00,
2013-01-17 06:12:00,30.0,29.0,30.46,ENE,58,0.0,1.0,97,0.00,,,0.00,,2013-01-17 14:12:00,
2013-01-17 06:23:00,30.0,29.0,30.45,ESE,118,1.0,2.0,97,0.00,,,0.00,,2013-01-17 14:23:00,
2013-01-17 06:33:00,30.0,29.0,30.45,ESE,118,1.0,2.0,97,0.00,,,0.00,,2013-01-17 14:33:00,
2013-01-17 06:42:00,30.0,29.0,30.45,ESE,118,1.0,2.0,97,0.00,,,0.00,,2013-01-17 14:42:00,
2013-01-17 06:52:00,30.0,29.0,30.45,ESE,110,1.0,3.0,97,0.00,,,0.00,,2013-01-17 14:52:00,
2013-01-17 07:03:00,30.0,29.0,30.45,ESE,110,1.0,3.0,97,0.00,,,0.00,,2013-01-17 15:03:00,
2013-01-17 07:12:00,30.0,29.0,30.45,ESE,110,1.0,3.0,97,0.00,,,0.00,,2013-01-17 15:12:00,
2013-01-17 07:22:00,30.0,29.0,30.45,ESE,103,0.0,2.0,97,0.00,,,0.00,,2013-01-17 15:22:00,
2013-01-17 07:33:00,30.0,29.0,30.45,ESE,103,0.0,2.0,97,0.00,,,0.00,,2013-01-17 15:33:00,
2013-01-17 07:43:00,30.0,29.0,30.45,ESE,103,0.0,2.0,97,0.00,,,0.00,,2013-01-17 15:43:00,
2013-01-17 07:52:00,30.0,29.0,30.45,East,85,0.0,1.0,97,0.00,,,0.00,,2013-01-17 15:52:00,
2013-01-17 08:02:00,30.0,29.0,30.45,East,85,0.0,1.0,97,0.00,,,0.00,,2013-01-17 16:02:00,
2013-01-17 08:12:00,30.0,29.0,30.45,East,85,0.0,1.0,97,0.00,,,0.00,,2013-01-17 16:12:00,
2013-01-17 08:22:00,30.0,29.0,30.45,East,79,2.0,2.0,96,0.00,,,0.00,,2013-01-17 16:22:00,
2013-01-17 08:33:00,30.0,29.0,30.45,East,79,2.0,2.0,96,0.00,,,0.00,,2013-01-17 16:33:00,
2013-01-17 08:43:00,30.0,29.0,30.45,East,79,2.0,2.0,96,0.00,,,0.00,,2013-01-17 16:43:00,
2013-01-17 08:52:00,29.0,28.0,30.45,ENE,78,2.0,2.0,96,0.00,,,0.00,,2013-01-17 16:52:00,
2013-01-17 09:02:00,29.0,28.0,30.45,ENE,78,2.0,2.0,96,0.00,,,0.00,,2013-01-17 17:02:00,
2013-01-17 09:12:00,29.0,28.0,30.45,ENE,78,2.0,2.0,96,0.00,,,0.00,,2013-01-17 17:12:00,
2013-01-17 09:22:00,29.0,28.0,30.46,East,89,0.0,1.0,96,0.00,,,0.00,,2013-01-17 17:22:00,
2013-01-17 09:33:00,29.0,28.0,30.46,East,89,0.0,1.0,96,0.00,,,0.00,,2013-01-17 17:33:00,
2013-01-17 09:43:00,29.0,28.0,30.46,East,89,0.0,1.0,96,0.00,,,0.00,,2013-01-17 17:43:00,
2013-01-17 09:53:00,29.0,28.0,30.45,ESE,112,0.0,2.0,96,0.00,,,0.00,,2013-01-17 17:53:00,
2013-01-17 10:03:00,29.0,28.0,30.45,ESE,112,0.0,2.0,96,0.00,,,0.00,,2013-01-17 18:03:00,
2013-01-17 10:12:00,29.0,28.0,30.45,ESE,112,0.0,2.0,96,0.00,,,0.00,,2013-01-17 18:12:00,
2013-01-17 10:22:00,29.0,28.0,30.45,NW,318,0.0,2.0,96,0.00,,,0.00,,2013-01-17 18:22:00,
2013-01-17 10:33:00,29.0,28.0,30.45,NW,318,0.0,2.0,96,0.00,,,0.00,,2013-01-17 18:33:00,
2013-01-17 10:43:00,29.0,28.0,30.45,NW,318,0.0,2.0,96,0.00,,,0.00,,2013-01-17 18:43:00,
2013-01-17 10:52:00,31.0,30.0,30.45,East,79,0.0,1.0,97,0.00,,,0.00,,2013-01-17 18:52:00,
2013-01-17 11:03:00,31.0,30.0,30.45,East,79,0.0,1.0,97,0.00,,,0.00,,2013-01-17 19:03:00,
2013-01-17 11:12:00,31.0,30.0,30.45,East,79,0.0,1.0,97,0.00,,,0.00,,2013-01-17 19:12:00,
2013-01-17 11:22:00,32.0,31.0,30.44,West,278,0.0,1.0,97,0.00,,,0.00,,2013-01-17 19:22:00,
2013-01-17 11:33:00,32.0,31.0,30.44,West,278,0.0,1.0,97,0.00,,,0.00,,2013-01-17 19:33:00,
2013-01-17 11:42:00,32.0,31.0,30.44,West,278,0.0,1.0,97,0.00,,,0.00,,2013-01-17 19:42:00,
2013-01-17 11:52:00,32.0,31.0,30.42,West,276,0.0,1.0,97,0.00,,,0.00,,2013-01-17 19:52:00,
2013-01-17 12:02:00,32.0,31.0,30.42,West,276,0.0,1.0,97,0.00,,,0.00,,2013-01-17 20:02:00,
2013-01-17 12:12:00,32.0,31.0,30.42,West,276,0.0,1.0,97,0.00,,,0.00,,2013-01-17 20:12:00,
2013-01-17 12:22:00,33.0,32.0,30.42,NW,323,1.0,3.0,97,0.00,,,0.00,,2013-01-17 20:22:00,
2013-01-17 12:33:00,33.0,32.0,30.42,NW,323,1.0,3.0,97,0.00,,,0.00,,2013-01-17 20:33:00,
2013-01-17 12:43:00,33.0,32.0,30.42,NW,323,1.0,3.0,97,0.00,,,0.00,,2013-01-17 20:43:00,
2013-01-17 12:53:00,33.0,32.0,30.40,WNW,288,1.0,2.0,97,0.00,,,0.00,,2013-01-17 20:53:00,
2013-01-17 13:02:00,33.0,32.0,30.40,WNW,288,1.0,2.0,97,0.00,,,0.00,,2013-01-17 21:02:00,
2013-01-17 13:12:00,33.0,32.0,30.40,WNW,288,1.0,2.0,97,0.00,,,0.00,,2013-01-17 21:12:00,
2013-01-17 13:22:00,33.0,32.0,30.38,NW,304,0.0,3.0,97,0.00,,,0.00,,2013-01-17 21:22:00,
2013-01-17 13:33:00,33.0,32.0,30.38,NW,304,0.0,3.0,97,0.00,,,0.00,,2013-01-17 21:33:00,
2013-01-17 13:42:00,33.0,32.0,30.38,NW,304,0.0,3.0,97,0.00,,,0.00,,2013-01-17 21:42:00,
2013-01-17 13:52:00,34.0,33.0,30.37,NW,315,1.0,4.0,97,0.00,,,0.00,,2013-01-17 21:52:00,
2013-01-17 14:03:00,34.0,33.0,30.37,NW,315,1.0,4.0,97,0.00,,,0.00,,2013-01-17 22:03:00,
2013-01-17 14:12:00,34.0,33.0,30.37,NW,315,1.0,4.0,97,0.00,,,0.00,,2013-01-17 22:12:00,
2013-01-17 14:22:00,34.0,33.0,30.36,WSW,238,1.0,3.0,97,0.00,,,0.00,,2013-01-17 22:22:00,
2013-01-17 14:33:00,34.0,33.0,30.36,WSW,238,1.0,3.0,97,0.00,,,0.00,,2013-01-17 22:33:00,
2013-01-17 14:42:00,34.0,33.0,30.36,WSW,238,1.0,3.0,97,0.00,,,0.00,,2013-01-17 22:42:00,
2013-01-17 14:52:00,34.0,33.0,30.35,WSW,249,0.0,2.0,97,0.01,,,0.01,,2013-01-17 22:52:00,
2013-01-17 15:02:00,34.0,33.0,30.35,WSW,249,0.0,2.0,97,0.01,,,0.01,,2013-01-17 23:02:00,
2013-01-17 15:12:00,34.0,33.0,30.35,WSW,249,0.0,2.0,97,0.01,,,0.01,,2013-01-17 23:12:00,
2013-01-17 15:22:00,35.0,34.0,30.34,East,98,1.0,1.0,97,0.01,,,0.01,,2013-01-17 23:22:00,
2013-01-17 15:32:00,35.0,34.0,30.34,East,98,1.0,1.0,97,0.01,,,0.01,,2013-01-17 23:32:00,
2013-01-17 15:42:00,35.0,34.0,30.34,East,98,1.0,1.0,97,0.01,,,0.01,,2013-01-17 23:42:00,
2013-01-17 15:52:00,35.0,34.0,30.32,SSW,195,0.0,2.0,97,0.00,,,0.01,,2013-01-17 23:52:00,
2013-01-17 16:02:00,35.0,34.0,30.32,SSW,195,0.0,2.0,97,0.00,,,0.01,,2013-01-18 00:02:00,
2013-01-17 16:12:00,35.0,34.0,30.32,SSW,195,0.0,2.0,97,0.00,,,0.01,,2013-01-18 00:12:00,
2013-01-17 16:22:00,35.0,34.0,30.32,West,278,2.0,4.0,97,0.00,,,0.01,,2013-01-18 00:22:00,
2013-01-17 16:32:00,35.0,34.0,30.32,West,278,2.0,4.0,97,0.00,,,0.01,,2013-01-18 00:32:00,
2013-01-17 16:42:00,35.0,34.0,30.32,West,278,2.0,4.0,97,0.00,,,0.01,,2013-01-18 00:42:00,
2013-01-17 16:52:00,34.0,33.0,30.33,NW,308,1.0,2.0,97,0.00,,,0.01,,2013-01-18 00:52:00,
2013-01-17 17:02:00,34.0,33.0,30.33,NW,308,1.0,2.0,97,0.00,,,0.01,,2013-01-18 01:02:00,
2013-01-17 17:12:00,34.0,33.0,30.33,NW,308,1.0,2.0,97,0.00,,,0.01,,2013-01-18 01:12:00,
2013-01-17 17:22:00,34.0,33.0,30.33,NW,321,1.0,2.0,97,0.00,,,0.01,,2013-01-18 01:22:00,
2013-01-17 17:33:00,34.0,33.0,30.33,NW,321,1.0,2.0,97,0.00,,,0.01,,2013-01-18 01:33:00,
2013-01-17 17:42:00,34.0,33.0,30.33,NW,321,1.0,2.0,97,0.00,,,0.01,,2013-01-18 01:42:00,
2013-01-17 17:52:00,34.0,33.0,30.33,ESE,108,0.0,1.0,97,0.00,,,0.01,,2013-01-18 01:52:00,
2013-01-17 18:02:00,34.0,33.0,30.33,ESE,108,0.0,1.0,97,0.00,,,0.01,,2013-01-18 02:02:00,
2013-01-17 18:12:00,34.0,33.0,30.33,ESE,108,0.0,1.0,97,0.00,,,0.01,,2013-01-18 02:12:00,
2013-01-17 18:22:00,34.0,33.0,30.32,SW,224,0.0,1.0,97,0.00,,,0.01,,2013-01-18 02:22:00,
2013-01-17 18:32:00,34.0,33.0,30.32,SW,224,0.0,1.0,97,0.00,,,0.01,,2013-01-18 02:32:00,
2013-01-17 18:42:00,34.0,33.0,30.32,SW,224,0.0,1.0,97,0.00,,,0.01,,2013-01-18 02:42:00,
2013-01-17 18:52:00,34.0,33.0,30.32,SE,129,0.0,1.0,97,0.00,,,0.01,,2013-01-18 02:52:00,
2013-01-17 19:02:00,34.0,33.0,30.32,SE,129,0.0,1.0,97,0.00,,,0.01,,2013-01-18 03:02:00,
2013-01-17 19:12:00,34.0,33.0,30.32,SE,129,0.0,1.0,97,0.00,,,0.01,,2013-01-18 03:12:00,
2013-01-17 19:22:00,33.0,32.0,30.31,East,92,1.0,1.0,97,0.00,,,0.01,,2013-01-18 03:22:00,
2013-01-17 19:33:00,33.0,32.0,30.31,East,92,1.0,1.0,97,0.00,,,0.01,,2013-01-18 03:33:00,
2013-01-17 19:42:00,33.0,32.0,30.31,East,92,1.0,1.0,97,0.00,,,0.01,,2013-01-18 03:42:00,
2013-01-17 19:52:00,33.0,32.0,30.31,ESE,121,0.0,1.0,97,0.00,,,0.01,,2013-01-18 03:52:00,
2013-01-17 20:02:00,33.0,32.0,30.31,ESE,121,0.0,1.0,97,0.00,,,0.01,,2013-01-18 04:02:00,
2013-01-17 20:12:00,33.0,32.0,30.31,ESE,121,0.0,1.0,97,0.00,,,0.01,,2013-01-18 04:12:00,
2013-01-17 20:22:00,32.0,31.0,30.31,WNW,283,2.0,2.0,97,0.00,,,0.01,,2013-01-18 04:22:00,
2013-01-17 20:32:00,32.0,31.0,30.31,WNW,283,2.0,2.0,97,0.00,,,0.01,,2013-01-18 04:32:00,
2013-01-17 20:42:00,32.0,31.0,30.31,WNW,283,2.0,2.0,97,0.00,,,0.01,,2013-01-18 04:42:00,
2013-01-17 20:52:00,32.0,31.0,30.32,West,272,1.0,2.0,97,0.00,,,0.01,,2013-01-18 04:52:00,
2013-01-17 21:03:00,32.0,31.0,30.32,West,272,1.0,2.0,97,0.00,,,0.01,,2013-01-18 05:03:00,
2013-01-17 21:12:00,32.0,31.0,30.32,West,272,1.0,2.0,97,0.00,,,0.01,,2013-01-18 05:12:00,
2013-01-17 21:22:00,32.0,31.0,30.31,WNW,287,0.0,2.0,97,0.00,,,0.01,,2013-01-18 05:22:00,
2013-01-17 21:33:00,32.0,31.0,30.31,WNW,287,0.0,2.0,97,0.00,,,0.01,,2013-01-18 05:33:00,
2013-01-17 21:42:00,32.0,31.0,30.31,WNW,287,0.0,2.0,97,0.00,,,0.01,,2013-01-18 05:42:00,
2013-01-17 21:52:00,32.0,31.0,30.31,East,92,0.0,1.0,97,0.00,,,0.01,,2013-01-18 05:52:00,
2013-01-17 22:02:00,32.0,31.0,30.31,East,92,0.0,1.0,97,0.00,,,0.01,,2013-01-18 06:02:00,
2013-01-17 22:12:00,32.0,31.0,30.31,East,92,0.0,1.0,97,0.00,,,0.01,,2013-01-18 06:12:00,
2013-01-17 22:22:00,32.0,31.0,30.31,ESE,118,0.0,1.0,97,0.00,,,0.01,,2013-01-18 06:22:00,
2013-01-17 22:32:00,32.0,31.0,30.31,ESE,118,0.0,1.0,97,0.00,,,0.01,,2013-01-18 06:32:00,
2013-01-17 22:42:00,32.0,31.0,30.31,ESE,118,0.0,1.0,97,0.00,,,0.01,,2013-01-18 06:42:00,
2013-01-17 22:52:00,32.0,31.0,30.30,WSW,246,0.0,1.0,97,0.00,,,0.01,,2013-01-18 06:52:00,
2013-01-17 23:02:00,32.0,31.0,30.30,WSW,246,0.0,1.0,97,0.00,,,0.01,,2013-01-18 07:02:00,
2013-01-17 23:12:00,32.0,31.0,30.30,WSW,246,0.0,1.0,97,0.00,,,0.01,,2013-01-18 07:12:00,
2013-01-17 23:22:00,31.0,30.0,30.29,ESE,103,0.0,1.0,97,0.00,,,0.01,,2013-01-18 07:22:00,
2013-01-17 23:32:00,31.0,30.0,30.29,ESE,103,0.0,1.0,97,0.00,,,0.01,,2013-01-18 07:32:00,
2013-01-17 23:42:00,31.0,30.0,30.29,ESE,103,0.0,1.0,97,0.00,,,0.01,,2013-01-18 07:42:00,
2013-01-17 23:52:00,31.0,30.0,30.29,ENE,64,1.0,2.0,97,0.00,,,0.01,,2013-01-18 07:52:00,